Time,TemperatureF,DewpointF,PressureIn,WindDirection,WindDirectionDegrees,WindSpeedMPH,WindSpeedGustMPH,Humidity,HourlyPrecipIn,Conditions,Clouds,dailyrainin,SoftwareType,DateUTC
2013-05-15 00:00:00,79.0,47.5,29.65,NNE,23,0.0,4.9,33,0.00,,SKC,0.00,VWS V13.01,2013-05-15 05:00:00,
2013-05-15 00:10:00,78.8,47.3,29.65,NNE,26,0.0,4.5,33,0.00,,SKC,0.00,VWS V13.01,2013-05-15 05:10:00,
2013-05-15 00:20:00,78.4,47.8,29.65,NE,54,0.0,2.2,34,0.00,,SKC,0.00,VWS V13.01,2013-05-15 05:20:00,
2013-05-15 00:30:00,77.9,47.3,29.68,East,88,0.0,0.0,34,0.00,,SKC,0.00,VWS V13.01,2013-05-15 05:30:00,
2013-05-15 00:40:00,77.4,46.8,29.65,NNE,24,0.0,2.7,34,0.00,,SKC,0.00,VWS V13.01,2013-05-15 05:40:00,
2013-05-15 00:50:00,77.0,46.5,29.65,NE,34,0.0,4.0,34,0.00,,SKC,0.00,VWS V13.01,2013-05-15 05:50:00,
2013-05-15 01:00:00,76.6,46.2,29.68,NNE,17,0.0,3.1,34,0.00,,SKC,0.00,VWS V13.01,2013-05-15 06:00:00,
2013-05-15 01:10:00,76.8,46.3,29.68,NNE,25,0.0,2.7,34,0.00,,SKC,0.00,VWS V13.01,2013-05-15 06:10:00,
2013-05-15 01:20:00,76.6,46.2,29.68,ENE,60,0.0,0.0,34,0.00,,SKC,0.00,VWS V13.01,2013-05-15 06:20:00,
2013-05-15 01:30:00,76.6,46.2,29.68,East,92,0.0,0.0,34,0.00,,SKC,0.00,VWS V13.01,2013-05-15 06:30:00,
2013-05-15 01:40:00,76.3,45.9,29.68,NE,42,0.0,0.0,34,0.00,,SKC,0.00,VWS V13.01,2013-05-15 06:40:00,
2013-05-15 01:50:00,76.1,47.2,29.68,SSE,148,2.7,3.1,36,0.00,,SKC,0.00,VWS V13.01,2013-05-15 06:50:00,
2013-05-15 02:00:00,75.9,47.1,29.68,ENE,63,0.0,2.7,36,0.00,,SKC,0.00,VWS V13.01,2013-05-15 07:00:00,
2013-05-15 02:10:00,75.7,46.9,29.68,East,84,0.0,5.8,36,0.00,,SKC,0.00,VWS V13.01,2013-05-15 07:10:00,
2013-05-15 02:20:00,75.2,46.4,29.68,NNE,22,0.0,0.0,36,0.00,,SKC,0.00,VWS V13.01,2013-05-15 07:20:00,
2013-05-15 02:30:00,74.7,46.7,29.68,NNE,21,0.0,0.0,37,0.00,,SKC,0.00,VWS V13.01,2013-05-15 07:30:00,
2013-05-15 02:40:00,74.1,46.2,29.68,NNW,333,0.0,0.0,37,0.00,,SKC,0.00,VWS V13.01,2013-05-15 07:40:00,
2013-05-15 02:50:00,73.6,45.7,29.68,NE,34,0.0,0.0,37,0.00,,SKC,0.00,VWS V13.01,2013-05-15 07:50:00,
2013-05-15 03:00:00,73.2,45.4,29.68,NNE,29,0.0,0.0,37,0.00,,SKC,0.00,VWS V13.01,2013-05-15 08:00:00,
2013-05-15 03:10:00,72.7,44.9,29.68,NNE,24,0.0,0.0,37,0.00,,SKC,0.00,VWS V13.01,2013-05-15 08:10:00,
2013-05-15 03:20:00,72.3,46.7,29.68,NNE,23,0.0,0.0,40,0.00,,SKC,0.00,VWS V13.01,2013-05-15 08:20:00,
2013-05-15 03:30:00,72.1,46.5,29.68,NE,34,0.0,0.0,40,0.00,,SKC,0.00,VWS V13.01,2013-05-15 08:30:00,
2013-05-15 03:40:00,71.8,46.2,29.71,NNE,32,0.0,0.0,40,0.00,,SKC,0.00,VWS V13.01,2013-05-15 08:40:00,
2013-05-15 03:50:00,71.4,47.8,29.71,SE,143,0.0,0.0,43,0.00,,SKC,0.00,VWS V13.01,2013-05-15 08:50:00,
2013-05-15 04:00:00,71.2,47.6,29.71,NE,38,0.0,0.0,43,0.00,,SKC,0.00,VWS V13.01,2013-05-15 09:00:00,
2013-05-15 04:10:00,70.9,48.5,29.71,ENE,67,0.0,0.0,45,0.00,,SKC,0.00,VWS V13.01,2013-05-15 09:10:00,
2013-05-15 04:20:00,70.7,48.3,29.71,ENE,60,0.0,0.0,45,0.00,,SKC,0.00,VWS V13.01,2013-05-15 09:20:00,
2013-05-15 04:30:00,70.2,49.6,29.71,ENE,60,0.0,0.0,48,0.00,,SKC,0.00,VWS V13.01,2013-05-15 09:30:00,
2013-05-15 04:40:00,69.8,49.2,29.71,ENE,60,0.0,0.0,48,0.00,,SKC,0.00,VWS V13.01,2013-05-15 09:40:00,
2013-05-15 04:50:00,69.3,49.3,29.71,ENE,60,0.0,0.0,49,0.00,,SKC,0.00,VWS V13.01,2013-05-15 09:50:00,
2013-05-15 05:00:00,68.7,48.8,29.71,ENE,60,0.0,0.0,49,0.00,,SKC,0.00,VWS V13.01,2013-05-15 10:00:00,
2013-05-15 05:10:00,68.2,48.8,29.71,ENE,60,0.0,0.0,50,0.00,,SKC,0.00,VWS V13.01,2013-05-15 10:10:00,
2013-05-15 05:20:00,67.8,49.6,29.71,ENE,60,0.0,0.0,52,0.00,,SKC,0.00,VWS V13.01,2013-05-15 10:20:00,
2013-05-15 05:30:00,67.3,49.6,29.71,ENE,60,0.0,0.0,53,0.00,,SKC,0.00,VWS V13.01,2013-05-15 10:30:00,
2013-05-15 05:40:00,66.4,49.7,29.71,ENE,60,0.0,0.0,55,0.00,,SKC,0.00,VWS V13.01,2013-05-15 10:40:00,
2013-05-15 05:50:00,65.5,50.3,29.71,ENE,60,0.0,0.0,58,0.00,,SKC,0.00,VWS V13.01,2013-05-15 10:50:00,
2013-05-15 06:10:00,64.2,50.1,29.71,ENE,60,0.0,0.0,60,0.00,,SKC,0.00,VWS V13.01,2013-05-15 11:10:00,
2013-05-15 06:20:00,63.9,50.2,29.71,ENE,60,0.0,0.0,61,0.00,,SKC,0.00,VWS V13.01,2013-05-15 11:20:00,
2013-05-15 06:30:00,63.5,50.3,29.71,ENE,60,0.0,0.0,62,0.00,,SKC,0.00,VWS V13.01,2013-05-15 11:30:00,
2013-05-15 06:40:00,63.3,50.5,29.71,ENE,60,0.0,0.0,63,0.00,,SKC,0.00,VWS V13.01,2013-05-15 11:40:00,
2013-05-15 06:50:00,63.1,50.8,29.71,ENE,60,0.0,0.0,64,0.00,,SKC,0.00,VWS V13.01,2013-05-15 11:50:00,
2013-05-15 07:00:00,63.3,51.4,29.74,ENE,60,0.0,0.0,65,0.00,,SKC,0.00,VWS V13.01,2013-05-15 12:00:00,
2013-05-15 07:10:00,63.5,52.0,29.74,ENE,60,0.0,0.0,66,0.00,,SKC,0.00,VWS V13.01,2013-05-15 12:10:00,
2013-05-15 07:20:00,63.7,52.5,29.74,ENE,60,0.0,0.0,67,0.00,,SKC,0.00,VWS V13.01,2013-05-15 12:20:00,
2013-05-15 07:30:00,64.8,53.6,29.74,ENE,60,0.0,0.0,67,0.00,,SKC,0.00,VWS V13.01,2013-05-15 12:30:00,
2013-05-15 07:40:00,65.7,54.8,29.74,ENE,60,0.0,0.0,68,0.00,,SKC,0.00,VWS V13.01,2013-05-15 12:40:00,
2013-05-15 07:50:00,67.5,54.4,29.74,NE,45,0.0,0.0,63,0.00,,SKC,0.00,VWS V13.01,2013-05-15 12:50:00,
2013-05-15 08:00:00,69.1,54.2,29.74,NE,34,0.0,0.0,59,0.00,,SKC,0.00,VWS V13.01,2013-05-15 13:00:00,
2013-05-15 08:10:00,70.2,53.3,29.74,East,83,0.0,0.0,55,0.00,,SKC,0.00,VWS V13.01,2013-05-15 13:10:00,
2013-05-15 08:20:00,70.9,51.9,29.74,NNE,25,0.0,0.0,51,0.00,,SKC,0.00,VWS V13.01,2013-05-15 13:20:00,
2013-05-15 08:30:00,71.4,51.8,29.74,NE,41,0.0,0.0,50,0.00,,SKC,0.00,VWS V13.01,2013-05-15 13:30:00,
2013-05-15 08:40:00,72.0,51.8,29.74,ENE,64,0.0,4.5,49,0.00,,SKC,0.00,VWS V13.01,2013-05-15 13:40:00,
2013-05-15 08:50:00,72.7,51.9,29.74,NE,42,0.0,0.0,48,0.00,,SKC,0.00,VWS V13.01,2013-05-15 13:50:00,
2013-05-15 09:00:00,73.2,52.4,29.74,NNE,12,2.7,2.7,48,0.00,,SKC,0.00,VWS V13.01,2013-05-15 14:00:00,
2013-05-15 09:10:00,73.9,52.5,29.74,NNE,24,0.0,2.7,47,0.00,,SKC,0.00,VWS V13.01,2013-05-15 14:10:00,
2013-05-15 09:20:00,74.1,52.6,29.74,NE,45,0.0,0.0,47,0.00,,SKC,0.00,VWS V13.01,2013-05-15 14:20:00,
2013-05-15 09:30:00,74.1,52.6,29.74,North,9,0.0,0.0,47,0.00,,SKC,0.00,VWS V13.01,2013-05-15 14:30:00,
2013-05-15 09:40:00,74.1,52.6,29.74,NNE,27,2.2,2.2,47,0.00,,SKC,0.00,VWS V13.01,2013-05-15 14:40:00,
2013-05-15 10:10:00,75.7,52.3,29.74,NNE,22,0.0,0.0,44,0.00,,SKC,0.00,VWS V13.01,2013-05-15 15:10:00,
2013-05-15 10:20:00,76.3,50.9,29.74,NNE,18,0.0,3.6,41,0.00,,SKC,0.00,VWS V13.01,2013-05-15 15:20:00,
2013-05-15 10:30:00,77.0,51.5,29.74,East,82,0.0,4.0,41,0.00,,SKC,0.00,VWS V13.01,2013-05-15 15:30:00,
2013-05-15 10:40:00,77.7,50.8,29.74,NNE,22,0.0,4.0,39,0.00,,SKC,0.00,VWS V13.01,2013-05-15 15:40:00,
2013-05-15 10:50:00,78.6,51.6,29.74,NNE,15,0.0,0.0,39,0.00,,SKC,0.00,VWS V13.01,2013-05-15 15:50:00,
2013-05-15 11:00:00,78.8,51.1,29.74,South,183,0.0,3.6,38,0.00,,SKC,0.00,VWS V13.01,2013-05-15 16:00:00,
2013-05-15 11:10:00,79.3,51.5,29.74,South,184,0.0,5.4,38,0.00,,SKC,0.00,VWS V13.01,2013-05-15 16:10:00,
2013-05-15 11:20:00,80.1,52.2,29.74,NNE,23,0.0,0.0,38,0.00,,SKC,0.00,VWS V13.01,2013-05-15 16:20:00,
2013-05-15 11:30:00,81.0,50.8,29.74,NE,56,0.0,0.0,35,0.00,,SKC,0.00,VWS V13.01,2013-05-15 16:30:00,
2013-05-15 11:40:00,81.1,50.9,29.74,NE,49,0.0,3.6,35,0.00,,SKC,0.00,VWS V13.01,2013-05-15 16:40:00,
2013-05-15 11:50:00,81.3,51.1,29.74,NNE,12,0.0,0.0,35,0.00,,SKC,0.00,VWS V13.01,2013-05-15 16:50:00,
2013-05-15 12:00:00,82.0,51.7,29.74,NNE,32,0.0,0.0,35,0.00,,SKC,0.00,VWS V13.01,2013-05-15 17:00:00,
2013-05-15 12:10:00,82.2,51.9,29.74,NNE,14,0.0,0.0,35,0.00,,SKC,0.00,VWS V13.01,2013-05-15 17:10:00,
2013-05-15 12:20:00,82.4,52.0,29.74,South,180,0.0,0.0,35,0.00,,SKC,0.00,VWS V13.01,2013-05-15 17:20:00,
2013-05-15 12:30:00,82.8,52.3,29.71,NNE,16,0.0,0.0,35,0.00,,SKC,0.00,VWS V13.01,2013-05-15 17:30:00,
2013-05-15 12:40:00,83.1,52.7,29.71,NNE,16,0.0,0.0,35,0.00,,SKC,0.00,VWS V13.01,2013-05-15 17:40:00,
2013-05-15 12:50:00,83.7,53.1,29.71,NE,41,0.0,0.0,35,0.00,,SKC,0.00,VWS V13.01,2013-05-15 17:50:00,
2013-05-15 13:00:00,83.8,53.3,29.71,NNE,30,0.0,0.0,35,0.00,,SKC,0.00,VWS V13.01,2013-05-15 18:00:00,
2013-05-15 13:10:00,84.4,53.0,29.71,NNE,31,0.0,0.0,34,0.00,,SKC,0.00,VWS V13.01,2013-05-15 18:10:00,
2013-05-15 13:20:00,85.1,53.6,29.71,NE,47,0.0,0.0,34,0.00,,SKC,0.00,VWS V13.01,2013-05-15 18:20:00,
2013-05-15 13:30:00,85.8,54.2,29.71,NNE,30,0.0,0.0,34,0.00,,SKC,0.00,VWS V13.01,2013-05-15 18:30:00,
2013-05-15 13:40:00,86.5,54.9,29.71,North,11,0.0,0.0,34,0.00,,SKC,0.00,VWS V13.01,2013-05-15 18:40:00,
2013-05-15 13:50:00,87.6,55.8,29.71,NNE,18,0.0,0.0,34,0.00,,SKC,0.00,VWS V13.01,2013-05-15 18:50:00,
2013-05-15 14:00:00,88.0,56.1,29.71,NNE,19,0.0,0.0,34,0.00,,SKC,0.00,VWS V13.01,2013-05-15 19:00:00,
2013-05-15 14:20:00,86.7,55.0,29.71,North,357,0.0,0.0,34,0.00,,SKC,0.00,VWS V13.01,2013-05-15 19:20:00,
2013-05-15 14:30:00,87.4,55.7,29.71,NNE,15,0.0,0.0,34,0.00,,SKC,0.00,VWS V13.01,2013-05-15 19:30:00,
2013-05-15 14:40:00,88.7,56.8,29.71,SSW,211,0.0,0.0,34,0.00,,SKC,0.00,VWS V13.01,2013-05-15 19:40:00,
2013-05-15 14:50:00,88.9,56.9,29.71,SSW,195,0.0,3.6,34,0.00,,SKC,0.00,VWS V13.01,2013-05-15 19:50:00,
2013-05-15 15:00:00,88.5,56.6,29.68,ESE,117,0.0,0.0,34,0.00,,SKC,0.00,VWS V13.01,2013-05-15 20:00:00,
2013-05-15 15:10:00,88.9,56.9,29.68,South,187,0.0,0.0,34,0.00,,SKC,0.00,VWS V13.01,2013-05-15 20:10:00,
2013-05-15 15:20:00,89.2,57.2,29.68,NNE,27,0.0,0.0,34,0.00,,SKC,0.00,VWS V13.01,2013-05-15 20:20:00,
2013-05-15 15:30:00,89.6,56.7,29.68,NNE,26,0.0,0.0,33,0.00,,SKC,0.00,VWS V13.01,2013-05-15 20:30:00,
2013-05-15 15:40:00,89.6,56.7,29.68,SSW,194,0.0,0.0,33,0.00,,SKC,0.00,VWS V13.01,2013-05-15 20:40:00,
2013-05-15 16:00:00,88.7,56.8,29.68,ESE,119,0.0,4.9,34,0.00,,SKC,0.00,VWS V13.01,2013-05-15 21:00:00,
2013-05-15 16:10:00,88.7,56.8,29.65,South,177,0.0,0.0,34,0.00,,SKC,0.00,VWS V13.01,2013-05-15 21:10:00,
2013-05-15 16:20:00,88.3,56.4,29.65,South,191,0.0,0.0,34,0.00,,SKC,0.00,VWS V13.01,2013-05-15 21:20:00,
2013-05-15 16:40:00,88.2,56.3,29.65,NE,40,0.0,0.0,34,0.00,,SKC,0.00,VWS V13.01,2013-05-15 21:40:00,
2013-05-15 16:50:00,88.3,56.4,29.65,East,88,0.0,0.0,34,0.00,,SKC,0.00,VWS V13.01,2013-05-15 21:50:00,
2013-05-15 17:00:00,88.9,56.9,29.65,SSW,203,0.0,0.0,34,0.00,,SKC,0.00,VWS V13.01,2013-05-15 22:00:00,
2013-05-15 17:10:00,89.2,57.2,29.65,ESE,122,0.0,0.0,34,0.00,,SKC,0.00,VWS V13.01,2013-05-15 22:10:00,
2013-05-15 17:20:00,89.2,57.2,29.65,ENE,70,0.0,7.2,34,0.00,,SKC,0.00,VWS V13.01,2013-05-15 22:20:00,
2013-05-15 17:30:00,89.1,57.1,29.65,ENE,68,0.0,0.0,34,0.00,,SKC,0.00,VWS V13.01,2013-05-15 22:30:00,
2013-05-15 17:40:00,88.2,56.3,29.65,ENE,58,0.0,0.0,34,0.00,,SKC,0.00,VWS V13.01,2013-05-15 22:40:00,
2013-05-15 18:00:00,87.3,55.5,29.62,NE,46,0.0,0.0,34,0.00,,SKC,0.00,VWS V13.01,2013-05-15 23:00:00,
2013-05-15 18:10:00,87.4,55.7,29.65,NE,47,0.0,0.0,34,0.00,,SKC,0.00,VWS V13.01,2013-05-15 23:10:00,
2013-05-15 18:50:00,85.1,55.9,29.65,NNE,29,0.0,3.1,37,0.00,,SKC,0.00,VWS V13.01,2013-05-15 23:50:00,
2013-05-15 19:00:00,84.6,55.5,29.65,NE,45,0.0,3.1,37,0.00,,SKC,0.00,VWS V13.01,2013-05-16 00:00:00,
2013-05-15 19:10:00,84.0,55.0,29.62,NNE,30,0.0,0.0,37,0.00,,SKC,0.00,VWS V13.01,2013-05-16 00:10:00,
2013-05-15 19:20:00,83.5,56.6,29.62,NE,46,0.0,0.0,40,0.00,,SKC,0.00,VWS V13.01,2013-05-16 00:20:00,
2013-05-15 19:30:00,82.9,57.5,29.65,East,82,0.0,0.0,42,0.00,,SKC,0.00,VWS V13.01,2013-05-16 00:30:00,
2013-05-15 19:40:00,82.2,58.8,29.65,ENE,63,0.0,0.0,45,0.00,,SKC,0.00,VWS V13.01,2013-05-16 00:40:00,
2013-05-15 19:50:00,81.5,58.8,29.65,NE,43,0.0,0.0,46,0.00,,SKC,0.00,VWS V13.01,2013-05-16 00:50:00,
2013-05-15 20:00:00,81.1,58.4,29.65,SSE,147,0.0,0.0,46,0.00,,SKC,0.00,VWS V13.01,2013-05-16 01:00:00,
2013-05-15 20:10:00,80.6,58.5,29.65,NNE,23,2.7,2.7,47,0.00,,SKC,0.00,VWS V13.01,2013-05-16 01:10:00,
2013-05-15 20:20:00,80.1,58.6,29.65,NNE,30,0.0,3.1,48,0.00,,SKC,0.00,VWS V13.01,2013-05-16 01:20:00,
2013-05-15 20:30:00,79.5,58.7,29.65,NE,51,0.0,0.0,49,0.00,,SKC,0.00,VWS V13.01,2013-05-16 01:30:00,
2013-05-15 20:40:00,79.0,58.8,29.68,NE,51,0.0,2.7,50,0.00,,SKC,0.00,VWS V13.01,2013-05-16 01:40:00,
2013-05-15 20:50:00,78.6,59.0,29.68,East,92,0.0,0.0,51,0.00,,SKC,0.00,VWS V13.01,2013-05-16 01:50:00,
2013-05-15 21:00:00,78.1,59.0,29.68,NNE,28,0.0,2.7,52,0.00,,SKC,0.00,VWS V13.01,2013-05-16 02:00:00,
2013-05-15 21:10:00,77.5,59.6,29.68,NNE,30,0.0,0.0,54,0.00,,SKC,0.00,VWS V13.01,2013-05-16 02:10:00,
2013-05-15 21:20:00,77.0,60.1,29.68,North,8,0.0,0.0,56,0.00,,SKC,0.00,VWS V13.01,2013-05-16 02:20:00,
2013-05-15 21:30:00,76.5,60.1,29.68,ENE,57,0.0,0.0,57,0.00,,SKC,0.00,VWS V13.01,2013-05-16 02:30:00,
2013-05-15 21:40:00,76.1,60.3,29.68,ENE,72,0.0,0.0,58,0.00,,SKC,0.00,VWS V13.01,2013-05-16 02:40:00,
2013-05-15 21:50:00,75.7,59.9,29.68,NNE,14,0.0,0.0,58,0.00,,SKC,0.00,VWS V13.01,2013-05-16 02:50:00,
2013-05-15 22:00:00,75.4,59.6,29.71,NNE,33,0.0,0.0,58,0.00,,SKC,0.00,VWS V13.01,2013-05-16 03:00:00,
2013-05-15 22:10:00,75.2,59.9,29.71,NE,40,0.0,0.0,59,0.00,,SKC,0.00,VWS V13.01,2013-05-16 03:10:00,
2013-05-15 22:20:00,74.8,59.6,29.71,NNE,25,0.0,0.0,59,0.00,,SKC,0.00,VWS V13.01,2013-05-16 03:20:00,
2013-05-15 22:40:00,74.3,59.1,29.71,NNE,15,0.0,0.0,59,0.00,,SKC,0.00,VWS V13.01,2013-05-16 03:40:00,
2013-05-15 22:50:00,74.1,58.9,29.71,NNE,15,0.0,0.0,59,0.00,,SKC,0.00,VWS V13.01,2013-05-16 03:50:00,
2013-05-15 23:00:00,73.9,58.7,29.71,NNE,22,0.0,0.0,59,0.00,,SKC,0.00,VWS V13.01,2013-05-16 04:00:00,
2013-05-15 23:10:00,73.8,59.0,29.71,NE,41,0.0,0.0,60,0.00,,SKC,0.00,VWS V13.01,2013-05-16 04:10:00,
2013-05-15 23:20:00,73.6,58.8,29.71,NE,41,0.0,0.0,60,0.00,,SKC,0.00,VWS V13.01,2013-05-16 04:20:00,
2013-05-15 23:30:00,73.2,59.0,29.71,ENE,72,0.0,0.0,61,0.00,,SKC,0.00,VWS V13.01,2013-05-16 04:30:00,
2013-05-15 23:40:00,73.0,59.3,29.74,ENE,59,0.0,0.0,62,0.00,,SKC,0.00,VWS V13.01,2013-05-16 04:40:00,
2013-05-15 23:50:00,72.7,59.4,29.74,NNE,30,0.0,0.0,63,0.00,,SKC,0.00,VWS V13.01,2013-05-16 04:50:00,